SCP
0 0 0 0 0 0 0 0 0 0 0 0 0 0 0 0 0 0 1 1 1 0 0 0 1 0 0 0 0 0 0 0
0 0 0 0 0 0 0 0 0 0 0 0 0 0 0 0 0 0 0 1 1 1 1 0 0 0 0 0 0 0 0 0
0 0 0 0 0 0 0 0 0 0 0 0 0 1 0 0 0 0 0 0 0 0 0 0 0 0 0 0 0 0 0 0
0 0 0 0 0 0 0 0 0 0 0 1 1 1 1 1 0 0 0 0 0 0 0 0 0 0 0 0 0 0 0 0
0 0 0 0 0 0 0 0 0 0 0 0 1 1 1 0 0 0 0 0 0 0 0 0 0 0 0 0 0 0 0 0
0 0 0 0 0 0 0 0 0 0 0 0 0 1 0 0 0 0 0 0 0 0 0 0 0 0 0 0 0 0 0 0
0 0 0 0 0 0 0 0 0 0 0 1 1 1 1 0 0 0 0 0 0 0 0 0 0 0 0 0 0 0 0 0
0 0 0 0 0 0 0 0 0 0 0 1 1 1 0 0 0 0 0 0 0 0 0 0 0 0 0 0 0 0 0 0
0 0 0 0 0 0 0 0 0 0 1 1 1 1 1 0 0 0 0 0 0 0 0 0 0 0 0 0 0 0 0 0
0 0 0 0 0 0 0 0 0 1 1 1 1 1 0 0 0 0 0 0 0 0 0 0 0 0 0 0 0 0 0 0
0 0 0 0 0 0 0 0 1 1 1 1 1 1 1 0 0 0 0 0 0 0 0 0 0 0 0 0 0 0 0 0
0 0 0 0 0 0 0 0 0 0 0 0 0 0 0 0 0 1 1 1 0 0 0 0 0 0 0 0 0 0 0 0
0 0 0 0 0 0 0 0 0 0 0 0 0 1 1 0 0 0 0 0 0 0 0 0 0 -0 -0 0 0 0 0 0
0 0 0 0 0 0 0 0 0 0 0 0 0 0 0 1 1 0 0 0 0 0 0 0 0 -0 -0 0 0 0 0 0
0 0 0 0 0 0 0 0 0 0 0 1 0 0 0 0 0 0 0 0 0 0 0 0 0 0 0 0 0 0 0 0
0 0 0 0 0 0 0 0 0 0 0 0 0 0 0 0 0 0 0 0 0 0 0 0 0 0 0 0 0 0 0 0
0 0 0 0 0 0 0 0 0 0 0 0 0 0 0 0 0 0 0 0 0 0 0 0 0 0 0 0 0 0 0 0
0 0 0 0 0 0 0 0 0 0 0 0 0 0 0 0 0 0 0 0 0 0 0 0 0 0 0 0 0 0 0 0
0 0 0 0 0 0 0 0 0 0 0 0 0 0 0 0 0 0 0 0 0 0 0 0 0 0 0 0 0 0 0 0
Wind_Speed_500mb
12 7 15 17 17 30 29 35 21 27 17 19 22 13 3 6 11 12 16 6 28 29 33 26 26 40 51 39 31 14 17 12
11 7 11 22 17 15 22 30 38 23 22 18 15 16 8 3 10 14 12 10 15 26 34 38 41 43 42 37 36 44 51 55
14 22 29 18 24 24 21 21 23 25 16 17 7 5 4 8 11 11 12 15 14 17 20 24 29 31 38 41 39 15 38 43
33 12 8 24 37 33 24 22 21 20 24 12 12 15 10 13 19 15 18 21 23 22 27 30 38 45 43 24 11 12 8 13
29 22 18 19 25 29 33 32 29 27 21 10 9 14 13 21 16 17 20 24 25 27 32 38 43 35 13 9 5 4 14 24
27 34 11 22 19 20 29 25 31 33 23 22 12 13 21 23 21 21 20 20 22 23 28 30 21 8 5 12 13 12 13 15
34 37 27 28 27 23 27 32 29 28 19 16 11 14 25 27 21 24 22 20 19 21 18 17 15 17 18 17 21 22 22 22
31 34 24 29 20 22 22 23 21 19 9 6 17 27 30 28 26 26 27 29 27 23 21 16 15 15 17 18 19 19 21 20
29 13 21 24 30 14 11 11 15 17 18 17 21 22 27 30 30 28 29 31 30 26 22 22 21 19 15 15 14 13 14 16
22 5 24 6 6 2 9 5 7 2 9 12 20 19 21 22 30 29 30 28 26 24 29 23 29 28 20 15 13 11 10 11
17 20 9 6 8 8 12 9 6 18 20 20 20 17 15 21 24 24 24 23 23 22 27 30 27 24 20 17 13 10 9 10
11 16 22 6 10 4 4 13 14 13 19 23 24 15 22 27 26 24 25 26 29 32 31 30 28 24 17 14 15 14 14 14
13 14 9 9 10 6 16 9 6 12 14 20 8 12 16 29 25 23 29 33 35 34 32 29 26 21 19 16 13 12 13 15
5 9 13 9 14 10 11 9 11 14 16 18 15 13 16 23 25 30 35 38 38 34 30 27 25 23 18 14 14 14 13 15
7 10 6 6 4 7 5 10 14 14 15 15 13 13 16 19 27 31 35 37 37 33 30 28 25 20 16 14 15 16 19 22
7 9 5 9 12 4 7 16 21 18 14 10 16 16 16 21 26 30 34 37 36 33 31 28 23 19 16 14 15 19 21 23
8 7 7 11 15 17 19 19 20 16 11 6 11 18 16 21 24 27 31 33 35 35 32 27 20 18 16 15 18 19 20 23
8 7 7 18 24 23 20 19 19 12 8 6 10 12 13 15 17 25 32 34 35 33 29 27 24 19 16 18 20 19 17 16
5 2 9 6 21 20 20 21 19 10 6 5 8 9 11 13 13 14 20 26 32 32 29 26 21 17 15 19 19 14 16 18
Wind_Direction_500mb
226 224 252 220 238 265 272 250 266 280 253 245 213 218 190 15 39 45 43 109 198 220 206 203 185 199 196 186 181 152 86 44
200 225 207 265 334 237 223 259 273 266 264 262 253 187 146 80 61 57 67 98 145 169 180 179 186 196 188 177 135 101 43 8
180 219 248 190 228 236 282 291 294 288 283 28 24 49 147 95 88 83 90 97 139 163 165 173 181 179 162 167 167 186 273 293
265 300 291 272 282 272 259 253 239 273 278 55 77 83 85 94 87 93 101 110 114 118 131 143 149 152 159 156 204 263 268 204
258 213 215 241 245 253 262 265 264 282 287 103 100 111 98 106 91 99 113 126 134 135 138 144 154 157 142 281 279 206 170 163
278 298 330 291 270 254 268 263 262 259 257 157 149 149 124 112 120 114 113 113 116 126 134 145 151 210 154 129 134 138 158 185
274 273 281 272 280 269 254 265 282 298 317 61 159 176 149 146 150 133 129 128 136 142 146 147 136 128 123 121 124 131 134 128
273 271 262 265 241 244 245 259 263 269 253 102 117 128 149 153 160 153 149 148 141 138 134 132 131 128 130 129 126 133 125 131
271 259 239 236 232 229 278 263 308 292 48 129 140 157 166 169 177 170 164 162 159 156 153 153 143 140 136 135 135 136 140 145
272 236 241 67 79 309 289 333 302 236 96 129 143 149 161 172 176 176 172 170 169 165 159 160 149 141 142 142 138 145 152 155
256 237 303 224 190 209 232 92 61 113 131 134 137 144 153 166 166 168 173 174 172 169 158 151 152 137 155 145 150 167 191 202
197 274 260 35 111 154 239 202 141 133 148 155 164 218 128 168 169 172 175 176 172 162 157 155 155 157 142 161 172 191 206 214
232 265 261 89 145 177 229 82 107 172 164 159 173 39 129 166 175 177 173 170 163 162 163 164 163 157 169 178 188 204 212 216
241 260 227 103 144 247 50 94 102 138 149 155 117 99 137 169 170 169 166 166 165 164 172 174 175 176 179 188 203 208 212 219
313 38 73 167 54 127 46 107 124 136 139 157 158 134 135 157 168 170 169 171 174 177 178 179 181 184 189 203 217 235 243 246
263 141 186 196 205 235 165 135 136 127 121 145 175 154 144 159 168 173 177 180 183 187 189 189 192 195 198 216 241 254 254 260
243 199 214 195 189 166 156 144 141 132 113 93 185 183 168 170 181 187 187 189 192 195 198 196 201 204 210 239 257 257 268 276
61 110 269 149 168 167 167 166 161 148 117 113 176 179 173 180 186 194 199 197 197 199 199 199 200 208 239 261 267 268 271 279
357 90 190 174 176 178 180 171 168 151 118 154 181 191 194 190 187 194 194 201 206 205 201 203 207 247 251 274 272 257 262 278
Wind_Speed_850mb
12 7 15 17 17 30 29 35 21 27 17 19 22 13 3 6 11 12 16 6 28 29 33 26 26 40 51 39 31 14 17 12
11 7 11 22 17 15 22 30 38 23 22 18 15 16 8 3 10 14 12 10 15 26 34 38 41 43 42 37 36 44 51 55
14 22 29 18 24 24 21 21 23 25 16 17 7 5 4 8 11 11 12 15 14 17 20 24 29 31 38 41 39 15 38 43
33 12 8 24 37 33 24 22 21 20 24 12 12 15 10 13 19 15 18 21 23 22 27 30 38 45 43 24 11 12 8 13
29 22 18 19 25 29 33 32 29 27 21 10 9 14 13 21 16 17 20 24 25 27 32 38 43 35 13 9 5 4 14 24
27 34 11 22 19 20 29 25 31 33 23 22 12 13 21 23 21 21 20 20 22 23 28 30 21 8 5 12 13 12 13 15
34 37 27 28 27 23 27 32 29 28 19 16 11 14 25 27 21 24 22 20 19 21 18 17 15 17 18 17 21 22 22 22
31 34 24 29 20 22 22 23 21 19 9 6 17 27 30 28 26 26 27 29 27 23 21 16 15 15 17 18 19 19 21 20
29 13 21 24 30 14 11 11 15 17 18 17 21 22 27 30 30 28 29 31 30 26 22 22 21 19 15 15 14 13 14 16
22 5 24 6 6 2 9 5 7 2 9 12 20 19 21 22 30 29 30 28 26 24 29 23 29 28 20 15 13 11 10 11
17 20 9 6 8 8 12 9 6 18 20 20 20 17 15 21 24 24 24 23 23 22 27 30 27 24 20 17 13 10 9 10
11 16 22 6 10 4 4 13 14 13 19 23 24 15 22 27 26 24 25 26 29 32 31 30 28 24 17 14 15 14 14 14
13 14 9 9 10 6 16 9 6 12 14 20 8 12 16 29 25 23 29 33 35 34 32 29 26 21 19 16 13 12 13 15
5 9 13 9 14 10 11 9 11 14 16 18 15 13 16 23 25 30 35 38 38 34 30 27 25 23 18 14 14 14 13 15
7 10 6 6 4 7 5 10 14 14 15 15 13 13 16 19 27 31 35 37 37 33 30 28 25 20 16 14 15 16 19 22
7 9 5 9 12 4 7 16 21 18 14 10 16 16 16 21 26 30 34 37 36 33 31 28 23 19 16 14 15 19 21 23
8 7 7 11 15 17 19 19 20 16 11 6 11 18 16 21 24 27 31 33 35 35 32 27 20 18 16 15 18 19 20 23
8 7 7 18 24 23 20 19 19 12 8 6 10 12 13 15 17 25 32 34 35 33 29 27 24 19 16 18 20 19 17 16
5 2 9 6 21 20 20 21 19 10 6 5 8 9 11 13 13 14 20 26 32 32 29 26 21 17 15 19 19 14 16 18
Wind_Direction_850mb
226 224 252 220 238 265 272 250 266 280 253 245 213 218 190 15 39 45 43 109 198 220 206 203 185 199 196 186 181 152 86 44
200 225 207 265 334 237 223 259 273 266 264 262 253 187 146 80 61 57 67 98 145 169 180 179 186 196 188 177 135 101 43 8
180 219 248 190 228 236 282 291 294 288 283 28 24 49 147 95 88 83 90 97 139 163 165 173 181 179 162 167 167 186 273 293
265 300 291 272 282 272 259 253 239 273 278 55 77 83 85 94 87 93 101 110 114 118 131 143 149 152 159 156 204 263 268 204
258 213 215 241 245 253 262 265 264 282 287 103 100 111 98 106 91 99 113 126 134 135 138 144 154 157 142 281 279 206 170 163
278 298 330 291 270 254 268 263 262 259 257 157 149 149 124 112 120 114 113 113 116 126 134 145 151 210 154 129 134 138 158 185
274 273 281 272 280 269 254 265 282 298 317 61 159 176 149 146 150 133 129 128 136 142 146 147 136 128 123 121 124 131 134 128
273 271 262 265 241 244 245 259 263 269 253 102 117 128 149 153 160 153 149 148 141 138 134 132 131 128 130 129 126 133 125 131
271 259 239 236 232 229 278 263 308 292 48 129 140 157 166 169 177 170 164 162 159 156 153 153 143 140 136 135 135 136 140 145
272 236 241 67 79 309 289 333 302 236 96 129 143 149 161 172 176 176 172 170 169 165 159 160 149 141 142 142 138 145 152 155
256 237 303 224 190 209 232 92 61 113 131 134 137 144 153 166 166 168 173 174 172 169 158 151 152 137 155 145 150 167 191 202
197 274 260 35 111 154 239 202 141 133 148 155 164 218 128 168 169 172 175 176 172 162 157 155 155 157 142 161 172 191 206 214
232 265 261 89 145 177 229 82 107 172 164 159 173 39 129 166 175 177 173 170 163 162 163 164 163 157 169 178 188 204 212 216
241 260 227 103 144 247 50 94 102 138 149 155 117 99 137 169 170 169 166 166 165 164 172 174 175 176 179 188 203 208 212 219
313 38 73 167 54 127 46 107 124 136 139 157 158 134 135 157 168 170 169 171 174 177 178 179 181 184 189 203 217 235 243 246
263 141 186 196 205 235 165 135 136 127 121 145 175 154 144 159 168 173 177 180 183 187 189 189 192 195 198 216 241 254 254 260
243 199 214 195 189 166 156 144 141 132 113 93 185 183 168 170 181 187 187 189 192 195 198 196 201 204 210 239 257 257 268 276
61 110 269 149 168 167 167 166 161 148 117 113 176 179 173 180 186 194 199 197 197 199 199 199 200 208 239 261 267 268 271 279
357 90 190 174 176 178 180 171 168 151 118 154 181 191 194 190 187 194 194 201 206 205 201 203 207 247 251 274 272 257 262 278